Time,TemperatureF,DewpointF,PressureIn,WindDirection,WindDirectionDegrees,WindSpeedMPH,WindSpeedGustMPH,Humidity,HourlyPrecipIn,Conditions,Clouds,dailyrainin,SolarRadiationWatts/m^2,SoftwareType,DateUTC
2013-06-04 00:00:00,73.2,65.6,29.87,SE,124,3.0,4.0,77,0.00,,---,0.00,0.00,VWS V14.00,2013-06-04 05:00:00,
2013-06-04 00:04:00,73.1,65.1,29.87,SE,131,4.0,4.0,76,0.00,,---,0.00,0.00,VWS V14.00,2013-06-04 05:04:00,
2013-06-04 00:08:00,72.9,65.3,29.87,ESE,112,4.0,4.0,77,0.00,,---,0.00,0.00,VWS V14.00,2013-06-04 05:08:00,
2013-06-04 00:12:00,72.9,65.3,29.87,ESE,117,3.0,4.0,77,0.00,,---,0.00,0.00,VWS V14.00,2013-06-04 05:12:00,
2013-06-04 00:16:00,72.9,65.7,29.87,ESE,113,3.0,4.0,78,0.00,,---,0.00,0.00,VWS V14.00,2013-06-04 05:16:00,
2013-06-04 00:20:00,72.7,65.1,29.87,SE,129,2.0,4.0,77,0.00,,---,0.00,0.00,VWS V14.00,2013-06-04 05:20:00,
2013-06-04 00:24:00,72.7,65.1,29.87,SE,126,2.0,4.0,77,0.00,,---,0.00,0.00,VWS V14.00,2013-06-04 05:24:00,
2013-06-04 00:28:00,72.7,65.4,29.87,SE,127,1.0,4.0,78,0.00,,---,0.00,0.00,VWS V14.00,2013-06-04 05:28:00,
2013-06-04 00:30:00,72.6,65.0,29.87,SE,125,4.0,4.0,77,0.00,,---,0.00,0.00,VWS V14.00,2013-06-04 05:30:00,
2013-06-04 00:32:00,72.5,65.3,29.87,ESE,121,1.0,4.0,78,0.00,,---,0.00,0.00,VWS V14.00,2013-06-04 05:32:00,
2013-06-04 00:36:00,72.4,65.2,29.87,SE,128,2.0,4.0,78,0.00,,---,0.00,0.00,VWS V14.00,2013-06-04 05:36:00,
2013-06-04 00:40:00,72.2,65.0,29.87,SE,134,2.0,4.0,78,0.00,,---,0.00,0.00,VWS V14.00,2013-06-04 05:40:00,
2013-06-04 00:44:00,72.0,64.8,29.87,SE,145,1.0,4.0,78,0.00,,---,0.00,0.00,VWS V14.00,2013-06-04 05:44:00,
2013-06-04 00:48:00,71.8,64.6,29.87,SSE,147,1.0,4.0,78,0.00,,---,0.00,0.00,VWS V14.00,2013-06-04 05:48:00,
2013-06-04 00:52:00,71.5,65.0,29.87,SSE,148,2.0,4.0,80,0.00,,---,0.00,0.00,VWS V14.00,2013-06-04 05:52:00,
2013-06-04 00:56:00,71.3,64.8,29.87,SSE,149,1.0,4.0,80,0.00,,---,0.00,0.00,VWS V14.00,2013-06-04 05:56:00,
2013-06-04 01:00:00,71.1,64.6,29.87,SSE,149,3.0,4.0,80,0.00,,---,0.00,0.00,VWS V14.00,2013-06-04 06:00:00,
2013-06-04 01:04:00,71.0,64.5,29.87,SSE,158,2.0,5.0,80,0.00,,---,0.00,0.00,VWS V14.00,2013-06-04 06:04:00,
2013-06-04 01:08:00,70.8,64.7,29.87,SE,138,5.0,5.0,81,0.00,,---,0.00,0.00,VWS V14.00,2013-06-04 06:08:00,
2013-06-04 01:12:00,70.8,64.7,29.87,SE,139,4.0,6.0,81,0.00,,---,0.00,0.00,VWS V14.00,2013-06-04 06:12:00,
2013-06-04 01:16:00,70.7,64.9,29.85,SE,144,4.0,6.0,82,0.00,,---,0.00,0.00,VWS V14.00,2013-06-04 06:16:00,
2013-06-04 01:20:00,70.7,64.6,29.85,SE,142,5.0,6.0,81,0.00,,---,0.00,0.00,VWS V14.00,2013-06-04 06:20:00,
2013-06-04 01:24:00,70.8,64.7,29.85,SSE,148,5.0,6.0,81,0.00,,---,0.00,0.00,VWS V14.00,2013-06-04 06:24:00,
2013-06-04 01:28:00,70.8,64.7,29.85,SSE,148,3.0,6.0,81,0.00,,---,0.00,0.00,VWS V14.00,2013-06-04 06:28:00,
2013-06-04 01:30:00,70.8,64.7,29.84,SSE,155,4.0,6.0,81,0.00,,---,0.00,0.00,VWS V14.00,2013-06-04 06:30:00,
2013-06-04 01:32:00,70.7,64.6,29.84,South,172,2.0,4.0,81,0.00,,---,0.00,0.00,VWS V14.00,2013-06-04 06:32:00,
2013-06-04 01:36:00,70.8,64.7,29.84,SE,139,3.0,4.0,81,0.00,,---,0.00,0.00,VWS V14.00,2013-06-04 06:36:00,
2013-06-04 01:40:00,70.7,64.6,29.84,SSE,148,4.0,6.0,81,0.00,,---,0.00,0.00,VWS V14.00,2013-06-04 06:40:00,
2013-06-04 01:44:00,70.7,64.6,29.84,SSE,149,5.0,6.0,81,0.00,,---,0.00,0.00,VWS V14.00,2013-06-04 06:44:00,
2013-06-04 01:48:00,70.7,64.6,29.84,SSE,161,3.0,6.0,81,0.00,,---,0.00,0.00,VWS V14.00,2013-06-04 06:48:00,
2013-06-04 01:57:00,71.0,64.5,29.84,SE,138,3.0,6.0,80,0.00,,---,0.00,0.00,VWS V14.00,2013-06-04 06:57:00,
2013-06-04 02:00:00,71.0,64.5,29.85,SE,127,4.0,6.0,80,0.00,,---,0.00,0.00,VWS V14.00,2013-06-04 07:00:00,
2013-06-04 02:01:00,71.1,64.3,29.85,SE,132,3.0,4.0,79,0.00,,---,0.00,0.00,VWS V14.00,2013-06-04 07:01:00,
2013-06-04 02:05:00,71.2,64.4,29.85,SE,135,4.0,4.0,79,0.00,,---,0.00,0.00,VWS V14.00,2013-06-04 07:05:00,
2013-06-04 02:09:00,71.4,64.6,29.85,SE,128,2.0,4.0,79,0.00,,---,0.00,0.00,VWS V14.00,2013-06-04 07:09:00,
2013-06-04 02:13:00,71.4,64.2,29.85,SE,126,3.0,4.0,78,0.00,,---,0.00,0.00,VWS V14.00,2013-06-04 07:13:00,
2013-06-04 02:17:00,71.4,64.2,29.85,ESE,119,2.0,4.0,78,0.00,,---,0.00,0.00,VWS V14.00,2013-06-04 07:17:00,
2013-06-04 02:21:00,71.3,64.5,29.85,ESE,122,4.0,4.0,79,0.00,,---,0.00,0.00,VWS V14.00,2013-06-04 07:21:00,
2013-06-04 02:25:00,71.2,64.4,29.85,ESE,121,2.0,4.0,79,0.00,,---,0.00,0.00,VWS V14.00,2013-06-04 07:25:00,
2013-06-04 02:29:00,71.1,64.6,29.85,ESE,115,4.0,4.0,80,0.00,,---,0.00,0.00,VWS V14.00,2013-06-04 07:29:00,
2013-06-04 02:30:00,71.0,64.2,29.85,SE,125,4.0,4.0,79,0.00,,---,0.00,0.00,VWS V14.00,2013-06-04 07:30:00,
2013-06-04 02:33:00,70.9,64.4,29.85,ESE,122,2.0,4.0,80,0.00,,---,0.00,0.00,VWS V14.00,2013-06-04 07:33:00,
2013-06-04 02:37:00,70.7,64.6,29.85,ESE,122,3.0,4.0,81,0.00,,---,0.00,0.00,VWS V14.00,2013-06-04 07:37:00,
2013-06-04 02:41:00,70.6,64.5,29.85,ESE,111,4.0,4.0,81,0.00,,---,0.00,0.00,VWS V14.00,2013-06-04 07:41:00,
2013-06-04 02:45:00,70.5,64.4,29.85,ESE,116,2.0,5.0,81,0.00,,---,0.00,0.00,VWS V14.00,2013-06-04 07:45:00,
2013-06-04 02:49:00,70.4,64.7,29.85,ESE,107,5.0,5.0,82,0.00,,---,0.00,0.00,VWS V14.00,2013-06-04 07:49:00,
2013-06-04 02:53:00,70.4,64.3,29.85,ESE,114,4.0,5.0,81,0.00,,---,0.00,0.00,VWS V14.00,2013-06-04 07:53:00,
2013-06-04 03:00:00,70.2,64.1,29.84,ESE,111,4.0,5.0,81,0.00,,---,0.00,0.00,VWS V14.00,2013-06-04 08:00:00,
2013-06-04 03:01:00,70.2,64.4,29.84,ESE,109,4.0,5.0,82,0.00,,---,0.00,0.00,VWS V14.00,2013-06-04 08:01:00,
2013-06-04 03:05:00,70.1,64.4,29.84,ESE,113,3.0,5.0,82,0.00,,---,0.00,0.00,VWS V14.00,2013-06-04 08:05:00,
2013-06-04 03:09:00,70.0,64.6,29.84,ESE,110,5.0,5.0,83,0.00,,---,0.00,0.00,VWS V14.00,2013-06-04 08:09:00,
2013-06-04 03:13:00,69.9,64.5,29.84,ESE,110,3.0,5.0,83,0.00,,---,0.00,0.00,VWS V14.00,2013-06-04 08:13:00,
2013-06-04 03:17:00,69.8,64.4,29.84,ESE,110,4.0,5.0,83,0.00,,---,0.00,0.00,VWS V14.00,2013-06-04 08:17:00,
2013-06-04 03:21:00,69.7,64.3,29.84,ESE,110,3.0,6.0,83,0.00,,---,0.00,0.00,VWS V14.00,2013-06-04 08:21:00,
2013-06-04 03:25:00,69.7,64.3,29.84,ESE,107,5.0,6.0,83,0.00,,---,0.00,0.00,VWS V14.00,2013-06-04 08:25:00,
2013-06-04 03:29:00,69.7,64.3,29.84,ESE,113,4.0,6.0,83,0.00,,---,0.00,0.00,VWS V14.00,2013-06-04 08:29:00,
2013-06-04 03:30:00,69.7,64.3,29.84,ESE,116,5.0,6.0,83,0.00,,---,0.00,0.00,VWS V14.00,2013-06-04 08:30:00,
2013-06-04 03:33:00,69.7,64.3,29.84,SE,136,4.0,9.0,83,0.00,,---,0.00,0.00,VWS V14.00,2013-06-04 08:33:00,
2013-06-04 03:37:00,69.7,64.3,29.84,SE,136,4.0,9.0,83,0.00,,---,0.00,0.00,VWS V14.00,2013-06-04 08:37:00,
2013-06-04 03:41:00,69.7,64.3,29.84,SE,140,6.0,9.0,83,0.00,,---,0.00,0.00,VWS V14.00,2013-06-04 08:41:00,
2013-06-04 03:46:00,69.6,63.9,29.84,SE,138,6.0,9.0,82,0.00,,---,0.00,0.00,VWS V14.00,2013-06-04 08:46:00,
2013-06-04 03:50:00,69.5,63.8,29.84,SE,132,6.0,9.0,82,0.00,,---,0.00,0.00,VWS V14.00,2013-06-04 08:50:00,
2013-06-04 03:54:00,69.4,64.0,29.84,SE,135,3.0,9.0,83,0.00,,---,0.00,0.00,VWS V14.00,2013-06-04 08:54:00,
2013-06-04 03:58:00,69.3,63.9,29.84,SE,138,8.0,9.0,83,0.00,,---,0.00,0.00,VWS V14.00,2013-06-04 08:58:00,
2013-06-04 04:00:00,69.2,63.8,29.83,SE,140,6.0,9.0,83,0.00,,---,0.00,0.00,VWS V14.00,2013-06-04 09:00:00,
2013-06-04 04:02:00,69.2,64.2,29.83,SE,142,5.0,6.0,84,0.00,,---,0.00,0.00,VWS V14.00,2013-06-04 09:02:00,
2013-06-04 04:06:00,69.1,64.1,29.83,SE,138,6.0,10.0,84,0.00,,---,0.00,0.00,VWS V14.00,2013-06-04 09:06:00,
2013-06-04 04:10:00,69.1,64.1,29.83,SE,134,4.0,10.0,84,0.00,,---,0.00,0.00,VWS V14.00,2013-06-04 09:10:00,
2013-06-04 04:14:00,69.0,64.0,29.82,SSE,152,4.0,10.0,84,0.00,,---,0.00,0.00,VWS V14.00,2013-06-04 09:14:00,
2013-06-04 04:18:00,68.9,63.9,29.82,SE,130,5.0,10.0,84,0.00,,---,0.00,0.00,VWS V14.00,2013-06-04 09:18:00,
2013-06-04 04:22:00,68.9,63.9,29.82,SE,140,5.0,10.0,84,0.00,,---,0.00,0.00,VWS V14.00,2013-06-04 09:22:00,
2013-06-04 04:26:00,69.0,64.0,29.82,SE,137,5.0,10.0,84,0.00,,---,0.00,0.00,VWS V14.00,2013-06-04 09:26:00,
2013-06-04 04:30:00,69.0,64.0,29.82,SSE,157,5.0,10.0,84,0.00,,---,0.00,0.00,VWS V14.00,2013-06-04 09:30:00,
2013-06-04 04:34:00,69.1,64.1,29.82,SSE,148,4.0,7.0,84,0.00,,---,0.00,0.00,VWS V14.00,2013-06-04 09:34:00,
2013-06-04 04:38:00,69.2,64.2,29.82,SE,136,4.0,7.0,84,0.00,,---,0.00,0.00,VWS V14.00,2013-06-04 09:38:00,
2013-06-04 04:42:00,69.2,64.2,29.82,SE,144,4.0,7.0,84,0.00,,---,0.00,0.00,VWS V14.00,2013-06-04 09:42:00,
2013-06-04 04:46:00,69.2,64.2,29.83,SE,128,5.0,7.0,84,0.00,,---,0.00,0.00,VWS V14.00,2013-06-04 09:46:00,
2013-06-04 04:50:00,69.3,64.3,29.83,SE,135,5.0,7.0,84,0.00,,---,0.00,0.00,VWS V14.00,2013-06-04 09:50:00,
2013-06-04 04:54:00,69.3,63.9,29.83,ESE,117,3.0,7.0,83,0.00,,---,0.00,0.00,VWS V14.00,2013-06-04 09:54:00,
2013-06-04 04:58:00,69.5,64.1,29.83,SSE,149,6.0,7.0,83,0.00,,---,0.00,0.00,VWS V14.00,2013-06-04 09:58:00,
2013-06-04 05:00:00,69.5,64.1,29.84,SE,133,4.0,7.0,83,0.00,,---,0.00,0.00,VWS V14.00,2013-06-04 10:00:00,
2013-06-04 05:02:00,69.6,64.2,29.84,ESE,115,4.0,4.0,83,0.00,,---,0.00,0.00,VWS V14.00,2013-06-04 10:02:00,
2013-06-04 05:06:00,69.7,64.3,29.84,SE,142,6.0,6.0,83,0.00,,---,0.00,0.00,VWS V14.00,2013-06-04 10:06:00,
2013-06-04 05:10:00,69.7,64.3,29.84,SE,125,5.0,6.0,83,0.00,,---,0.00,0.00,VWS V14.00,2013-06-04 10:10:00,
2013-06-04 05:14:00,69.6,64.2,29.83,SE,127,3.0,7.0,83,0.00,,---,0.00,0.00,VWS V14.00,2013-06-04 10:14:00,
2013-06-04 05:18:00,69.6,64.2,29.83,SE,141,5.0,7.0,83,0.00,,---,0.00,0.00,VWS V14.00,2013-06-04 10:18:00,
2013-06-04 05:22:00,69.4,64.0,29.83,ESE,117,2.0,7.0,83,0.00,,---,0.00,0.00,VWS V14.00,2013-06-04 10:22:00,
2013-06-04 05:26:00,69.4,64.4,29.83,SE,135,2.0,7.0,84,0.00,,---,0.00,0.00,VWS V14.00,2013-06-04 10:26:00,
2013-06-04 05:30:00,69.3,64.3,29.85,SE,138,2.0,7.0,84,0.00,,---,0.00,0.00,VWS V14.00,2013-06-04 10:30:00,
2013-06-04 05:34:00,69.3,63.9,29.85,SE,140,3.0,4.0,83,0.00,,---,0.00,0.00,VWS V14.00,2013-06-04 10:34:00,
2013-06-04 05:38:00,69.2,64.2,29.85,ESE,114,2.0,6.0,84,0.00,,---,0.00,0.00,VWS V14.00,2013-06-04 10:38:00,
2013-06-04 05:43:00,69.2,64.2,29.85,SE,136,2.0,6.0,84,0.00,,---,0.00,0.00,VWS V14.00,2013-06-04 10:43:00,
2013-06-04 05:47:00,69.1,64.1,29.86,SE,136,2.0,6.0,84,0.00,,---,0.00,0.00,VWS V14.00,2013-06-04 10:47:00,
2013-06-04 05:51:00,69.0,64.0,29.86,SE,140,2.0,6.0,84,0.00,,---,0.00,0.00,VWS V14.00,2013-06-04 10:51:00,
2013-06-04 05:55:00,69.0,64.0,29.86,SE,142,3.0,6.0,84,0.00,,---,0.00,0.00,VWS V14.00,2013-06-04 10:55:00,
2013-06-04 05:59:00,69.0,64.0,29.85,SE,146,2.0,6.0,84,0.00,,---,0.00,0.00,VWS V14.00,2013-06-04 10:59:00,
2013-06-04 06:00:00,69.0,64.0,29.85,SE,146,3.0,6.0,84,0.00,,---,0.00,5.00,VWS V14.00,2013-06-04 11:00:00,
2013-06-04 06:03:00,68.9,63.9,29.85,SE,140,2.0,6.0,84,0.00,,---,0.00,5.00,VWS V14.00,2013-06-04 11:03:00,
2013-06-04 06:07:00,68.9,63.9,29.85,SSE,153,4.0,6.0,84,0.00,,---,0.00,9.00,VWS V14.00,2013-06-04 11:07:00,
2013-06-04 06:11:00,68.9,63.9,29.85,SSE,150,3.0,6.0,84,0.00,,---,0.00,11.00,VWS V14.00,2013-06-04 11:11:00,
2013-06-04 06:15:00,68.9,64.2,29.87,SSE,147,3.0,6.0,85,0.00,,---,0.00,12.00,VWS V14.00,2013-06-04 11:15:00,
2013-06-04 06:19:00,68.9,63.9,29.87,SE,140,3.0,6.0,84,0.00,,---,0.00,16.00,VWS V14.00,2013-06-04 11:19:00,
2013-06-04 06:23:00,68.9,64.2,29.87,SSE,150,2.0,6.0,85,0.00,,---,0.00,21.00,VWS V14.00,2013-06-04 11:23:00,
2013-06-04 06:27:00,69.0,64.3,29.87,SSE,148,2.0,6.0,85,0.00,,---,0.00,23.00,VWS V14.00,2013-06-04 11:27:00,
2013-06-04 06:30:00,69.0,64.3,29.86,SSE,153,3.0,7.0,85,0.00,,---,0.00,25.00,VWS V14.00,2013-06-04 11:30:00,
2013-06-04 06:31:00,69.0,64.3,29.86,SSE,157,3.0,3.0,85,0.00,,---,0.00,25.00,VWS V14.00,2013-06-04 11:31:00,
2013-06-04 06:35:00,69.0,64.3,29.86,SSE,148,2.0,5.0,85,0.00,,---,0.00,28.00,VWS V14.00,2013-06-04 11:35:00,
2013-06-04 06:39:00,69.1,64.4,29.86,SE,144,5.0,5.0,85,0.00,,---,0.00,33.00,VWS V14.00,2013-06-04 11:39:00,
2013-06-04 06:43:00,69.2,64.5,29.86,SSE,155,4.0,7.0,85,0.00,,---,0.00,32.00,VWS V14.00,2013-06-04 11:43:00,
2013-06-04 06:47:00,69.4,64.7,29.87,SE,126,6.0,7.0,85,0.00,,---,0.00,32.00,VWS V14.00,2013-06-04 11:47:00,
2013-06-04 06:51:00,69.5,64.5,29.87,SE,139,5.0,7.0,84,0.00,,---,0.00,40.00,VWS V14.00,2013-06-04 11:51:00,
2013-06-04 06:55:00,69.6,64.6,29.87,ESE,121,3.0,7.0,84,0.00,,---,0.00,86.00,VWS V14.00,2013-06-04 11:55:00,
2013-06-04 06:59:00,69.9,64.8,29.87,ESE,120,4.0,7.0,84,0.00,,---,0.00,128.00,VWS V14.00,2013-06-04 11:59:00,
2013-06-04 07:00:00,69.9,64.8,29.87,SE,142,7.0,7.0,84,0.00,,---,0.00,132.00,VWS V14.00,2013-06-04 12:00:00,
2013-06-04 07:03:00,70.1,65.1,29.87,SE,144,6.0,7.0,84,0.00,,---,0.00,141.00,VWS V14.00,2013-06-04 12:03:00,
2013-06-04 07:07:00,70.2,65.1,29.87,SE,125,3.0,7.0,84,0.00,,---,0.00,149.00,VWS V14.00,2013-06-04 12:07:00,
2013-06-04 07:11:00,70.4,65.0,29.87,SE,146,3.0,7.0,83,0.00,,---,0.00,107.00,VWS V14.00,2013-06-04 12:11:00,
2013-06-04 07:15:00,70.6,65.2,29.87,ESE,121,2.0,7.0,83,0.00,,---,0.00,142.00,VWS V14.00,2013-06-04 12:15:00,
2013-06-04 07:19:00,70.8,65.0,29.87,SSE,157,4.0,7.0,82,0.00,,---,0.00,120.00,VWS V14.00,2013-06-04 12:19:00,
2013-06-04 07:23:00,71.0,65.6,29.87,SE,128,3.0,7.0,83,0.00,,---,0.00,202.00,VWS V14.00,2013-06-04 12:23:00,
2013-06-04 07:27:00,71.4,65.6,29.87,SSE,155,5.0,7.0,82,0.00,,---,0.00,216.00,VWS V14.00,2013-06-04 12:27:00,
2013-06-04 07:30:00,71.5,65.7,29.87,SE,130,3.0,7.0,82,0.00,,---,0.00,132.00,VWS V14.00,2013-06-04 12:30:00,
2013-06-04 07:31:00,71.7,66.3,29.87,SE,130,3.0,3.0,83,0.00,,---,0.00,188.00,VWS V14.00,2013-06-04 12:31:00,
2013-06-04 07:35:00,72.0,66.2,29.87,SE,128,3.0,5.0,82,0.00,,---,0.00,227.00,VWS V14.00,2013-06-04 12:35:00,
2013-06-04 07:39:00,72.2,66.4,29.87,SE,126,3.0,5.0,82,0.00,,---,0.00,257.00,VWS V14.00,2013-06-04 12:39:00,
2013-06-04 07:43:00,72.4,66.2,29.87,ESE,117,2.0,5.0,81,0.00,,---,0.00,272.00,VWS V14.00,2013-06-04 12:43:00,
2013-06-04 07:48:00,72.7,65.8,29.87,ESE,114,2.0,5.0,79,0.00,,---,0.00,279.00,VWS V14.00,2013-06-04 12:48:00,
2013-06-04 07:52:00,73.0,66.5,29.87,ESE,112,3.0,5.0,80,0.00,,---,0.00,302.00,VWS V14.00,2013-06-04 12:52:00,
2013-06-04 07:56:00,73.1,66.6,29.87,SE,125,3.0,5.0,80,0.00,,---,0.00,322.00,VWS V14.00,2013-06-04 12:56:00,
2013-06-04 08:00:00,73.4,66.9,29.89,SE,126,3.0,5.0,80,0.00,,---,0.00,343.00,VWS V14.00,2013-06-04 13:00:00,
2013-06-04 08:04:00,73.6,66.7,29.89,SE,142,3.0,7.0,79,0.00,,---,0.00,364.00,VWS V14.00,2013-06-04 13:04:00,
2013-06-04 08:08:00,73.9,67.0,29.89,SSE,147,2.0,7.0,79,0.00,,---,0.00,346.00,VWS V14.00,2013-06-04 13:08:00,
2013-06-04 08:12:00,74.1,67.5,29.89,SSE,155,3.0,7.0,80,0.00,,---,0.00,304.00,VWS V14.00,2013-06-04 13:12:00,
2013-06-04 08:16:00,74.4,67.1,29.89,SE,138,4.0,7.0,78,0.00,,---,0.00,274.00,VWS V14.00,2013-06-04 13:16:00,
2013-06-04 08:20:00,74.5,67.6,29.89,ESE,117,2.0,7.0,79,0.00,,---,0.00,306.00,VWS V14.00,2013-06-04 13:20:00,
2013-06-04 08:24:00,74.7,67.4,29.89,SE,141,4.0,7.0,78,0.00,,---,0.00,292.00,VWS V14.00,2013-06-04 13:24:00,
2013-06-04 08:28:00,74.9,67.9,29.89,SE,136,5.0,7.0,79,0.00,,---,0.00,332.00,VWS V14.00,2013-06-04 13:28:00,
2013-06-04 08:30:00,75.1,67.4,29.90,SE,134,1.0,7.0,77,0.00,,---,0.00,339.00,VWS V14.00,2013-06-04 13:30:00,
2013-06-04 08:36:00,75.8,68.1,29.90,SE,141,0.0,3.0,77,0.00,,---,0.00,487.00,VWS V14.00,2013-06-04 13:36:00,
2013-06-04 08:40:00,76.3,68.6,29.90,SSE,148,0.0,3.0,77,0.00,,---,0.00,492.00,VWS V14.00,2013-06-04 13:40:00,
2013-06-04 08:44:00,76.9,68.8,29.93,SE,126,2.0,3.0,76,0.00,,---,0.00,506.00,VWS V14.00,2013-06-04 13:44:00,
2013-06-04 08:48:00,77.2,68.3,29.93,SE,134,0.0,3.0,74,0.00,,---,0.00,524.00,VWS V14.00,2013-06-04 13:48:00,
2013-06-04 08:52:00,77.5,69.0,29.93,SSE,161,3.0,6.0,75,0.00,,---,0.00,424.00,VWS V14.00,2013-06-04 13:52:00,
2013-06-04 08:56:00,77.4,68.9,29.93,SE,140,2.0,6.0,75,0.00,,---,0.00,406.00,VWS V14.00,2013-06-04 13:56:00,
2013-06-04 09:00:00,77.4,69.6,29.93,SE,146,0.0,6.0,77,0.00,,---,0.00,427.00,VWS V14.00,2013-06-04 14:00:00,
2013-06-04 09:04:00,77.1,69.3,29.93,SE,146,0.0,0.0,77,0.00,,---,0.00,508.00,VWS V14.00,2013-06-04 14:04:00,
2013-06-04 09:08:00,76.9,69.2,29.93,East,82,0.0,2.0,77,0.00,,---,0.00,415.00,VWS V14.00,2013-06-04 14:08:00,
2013-06-04 09:12:00,76.8,69.1,29.93,East,81,0.0,2.0,77,0.00,,---,0.00,538.00,VWS V14.00,2013-06-04 14:12:00,
2013-06-04 09:16:00,77.2,69.1,29.95,ENE,78,0.0,2.0,76,0.00,,---,0.00,510.00,VWS V14.00,2013-06-04 14:16:00,
2013-06-04 09:20:00,77.4,69.6,29.95,NNW,338,1.0,4.0,77,0.00,,---,0.00,485.00,VWS V14.00,2013-06-04 14:20:00,
2013-06-04 09:24:00,78.2,71.2,29.95,NNW,338,0.0,4.0,79,0.00,,---,0.00,612.00,VWS V14.00,2013-06-04 14:24:00,
2013-06-04 09:28:00,79.0,70.8,29.95,ENE,57,1.0,4.0,76,0.00,,---,0.00,628.00,VWS V14.00,2013-06-04 14:28:00,
2013-06-04 09:30:00,78.9,69.9,29.96,ENE,57,0.0,4.0,74,0.00,,---,0.00,629.00,VWS V14.00,2013-06-04 14:30:00,
2013-06-04 09:32:00,78.5,69.9,29.96,ENE,69,0.0,0.0,75,0.00,,---,0.00,605.00,VWS V14.00,2013-06-04 14:32:00,
2013-06-04 09:36:00,78.4,69.8,29.96,East,80,0.0,1.0,75,0.00,,---,0.00,355.00,VWS V14.00,2013-06-04 14:36:00,
2013-06-04 09:41:00,77.9,69.3,29.96,North,360,0.0,1.0,75,0.00,,---,0.00,332.00,VWS V14.00,2013-06-04 14:41:00,
2013-06-04 09:45:00,77.8,70.4,29.96,North,360,0.0,1.0,78,0.00,,---,0.00,341.00,VWS V14.00,2013-06-04 14:45:00,
2013-06-04 09:49:00,78.2,70.0,29.96,NNW,344,5.0,5.0,76,0.00,,---,0.00,380.00,VWS V14.00,2013-06-04 14:49:00,
2013-06-04 09:53:00,78.5,69.9,29.96,NNW,346,3.0,6.0,75,0.00,,---,0.00,410.00,VWS V14.00,2013-06-04 14:53:00,
2013-06-04 09:57:00,78.3,69.7,29.96,NNW,333,2.0,6.0,75,0.00,,---,0.00,276.00,VWS V14.00,2013-06-04 14:57:00,
2013-06-04 10:00:00,78.4,69.8,29.98,North,5,2.0,6.0,75,0.00,,---,0.00,473.00,VWS V14.00,2013-06-04 15:00:00,
2013-06-04 10:01:00,78.4,69.8,29.98,North,5,2.0,2.0,75,0.00,,---,0.00,473.00,VWS V14.00,2013-06-04 15:01:00,
2013-06-04 10:05:00,79.5,70.5,29.98,NE,44,0.0,2.0,74,0.00,,---,0.00,696.00,VWS V14.00,2013-06-04 15:05:00,
2013-06-04 10:09:00,80.2,70.8,29.98,NNW,341,3.0,4.0,73,0.00,,---,0.00,445.00,VWS V14.00,2013-06-04 15:09:00,
2013-06-04 10:13:00,80.0,70.6,29.98,NNW,340,2.0,4.0,73,0.00,,---,0.00,357.00,VWS V14.00,2013-06-04 15:13:00,
2013-06-04 10:17:00,79.4,70.4,29.96,North,350,2.0,6.0,74,0.00,,---,0.00,420.00,VWS V14.00,2013-06-04 15:17:00,
2013-06-04 10:21:00,79.2,70.6,29.96,ENE,67,2.0,8.0,75,0.00,,---,0.00,492.00,VWS V14.00,2013-06-04 15:21:00,
2013-06-04 10:25:00,79.7,69.1,29.96,NNW,344,3.0,8.0,70,0.00,,---,0.00,360.00,VWS V14.00,2013-06-04 15:25:00,
2013-06-04 10:29:00,78.9,69.1,29.96,NNE,13,2.0,8.0,72,0.00,,---,0.00,323.00,VWS V14.00,2013-06-04 15:29:00,
2013-06-04 10:30:00,78.7,69.3,29.95,North,360,2.0,8.0,73,0.00,,---,0.00,283.00,VWS V14.00,2013-06-04 15:30:00,
2013-06-04 10:33:00,78.4,69.4,29.95,North,5,4.0,6.0,74,0.00,,---,0.00,290.00,VWS V14.00,2013-06-04 15:33:00,
2013-06-04 10:37:00,77.4,68.5,29.95,NNW,343,10.0,13.0,74,0.00,,---,0.00,167.00,VWS V14.00,2013-06-04 15:37:00,
2013-06-04 10:41:00,77.0,69.2,29.95,NNE,17,6.0,13.0,77,0.00,,---,0.00,267.00,VWS V14.00,2013-06-04 15:41:00,
2013-06-04 10:45:00,77.5,69.0,29.95,NW,319,0.0,13.0,75,0.00,,---,0.00,371.00,VWS V14.00,2013-06-04 15:45:00,
2013-06-04 10:49:00,78.5,69.9,29.95,NNW,345,0.0,13.0,75,0.00,,---,0.00,814.00,VWS V14.00,2013-06-04 15:49:00,
2013-06-04 10:53:00,79.5,70.9,29.95,East,79,2.0,13.0,75,0.00,,---,0.00,904.00,VWS V14.00,2013-06-04 15:53:00,
2013-06-04 10:57:00,79.9,70.5,29.95,ENE,78,0.0,13.0,73,0.00,,---,0.00,939.00,VWS V14.00,2013-06-04 15:57:00,
2013-06-04 11:00:00,79.9,70.5,29.93,NNE,19,0.0,13.0,73,0.00,,---,0.00,939.00,VWS V14.00,2013-06-04 16:00:00,
2013-06-04 11:01:00,79.3,69.9,29.93,NE,38,3.0,3.0,73,0.00,,---,0.00,944.00,VWS V14.00,2013-06-04 16:01:00,
2013-06-04 11:05:00,78.8,69.8,29.93,ENE,61,1.0,3.0,74,0.00,,---,0.00,956.00,VWS V14.00,2013-06-04 16:05:00,
2013-06-04 11:09:00,79.4,72.3,29.93,East,79,0.0,3.0,79,0.00,,---,0.00,967.00,VWS V14.00,2013-06-04 16:09:00,
2013-06-04 11:13:00,80.2,71.9,29.93,NE,54,1.0,3.0,76,0.00,,---,0.00,963.00,VWS V14.00,2013-06-04 16:13:00,
2013-06-04 11:17:00,80.6,72.3,29.93,NE,55,2.0,3.0,76,0.00,,---,0.00,963.00,VWS V14.00,2013-06-04 16:17:00,
2013-06-04 11:21:00,80.6,71.9,29.93,ENE,63,1.0,3.0,75,0.00,,---,0.00,972.00,VWS V14.00,2013-06-04 16:21:00,
2013-06-04 11:25:00,80.1,70.3,29.93,ENE,69,0.0,5.0,72,0.00,,---,0.00,976.00,VWS V14.00,2013-06-04 16:25:00,
2013-06-04 11:29:00,80.2,71.6,29.93,NE,54,3.0,5.0,75,0.00,,---,0.00,976.00,VWS V14.00,2013-06-04 16:29:00,
2013-06-04 11:30:00,80.3,71.7,29.92,ESE,107,0.0,5.0,75,0.00,,---,0.00,976.00,VWS V14.00,2013-06-04 16:30:00,
2013-06-04 11:33:00,80.1,70.3,29.92,ENE,74,3.0,3.0,72,0.00,,---,0.00,976.00,VWS V14.00,2013-06-04 16:33:00,
2013-06-04 11:37:00,80.0,70.6,29.92,ENE,78,4.0,4.0,73,0.00,,---,0.00,969.00,VWS V14.00,2013-06-04 16:37:00,
2013-06-04 11:41:00,79.9,69.7,29.92,East,91,2.0,4.0,71,0.00,,---,0.00,965.00,VWS V14.00,2013-06-04 16:41:00,
2013-06-04 11:45:00,80.1,71.5,29.90,East,86,1.0,4.0,75,0.00,,---,0.00,962.00,VWS V14.00,2013-06-04 16:45:00,
2013-06-04 11:49:00,80.5,71.5,29.90,ENE,73,3.0,4.0,74,0.00,,---,0.00,956.00,VWS V14.00,2013-06-04 16:49:00,
2013-06-04 11:54:00,81.0,71.1,29.90,East,94,0.0,4.0,72,0.00,,---,0.00,962.00,VWS V14.00,2013-06-04 16:54:00,
2013-06-04 11:58:00,81.1,71.6,29.90,ESE,113,2.0,4.0,73,0.00,,---,0.00,960.00,VWS V14.00,2013-06-04 16:58:00,
2013-06-04 12:00:00,81.3,71.0,29.89,ESE,113,2.0,4.0,71,0.00,,---,0.00,958.00,VWS V14.00,2013-06-04 17:00:00,
2013-06-04 12:02:00,81.3,71.0,29.89,ESE,109,4.0,4.0,71,0.00,,---,0.00,958.00,VWS V14.00,2013-06-04 17:02:00,
2013-06-04 12:06:00,81.8,71.1,29.89,SE,144,0.0,7.0,70,0.00,,---,0.00,954.00,VWS V14.00,2013-06-04 17:06:00,
2013-06-04 12:10:00,81.9,72.0,29.89,ESE,103,2.0,7.0,72,0.00,,---,0.00,926.00,VWS V14.00,2013-06-04 17:10:00,
2013-06-04 12:14:00,82.5,71.3,29.89,SSW,194,7.0,7.0,69,0.00,,---,0.00,947.00,VWS V14.00,2013-06-04 17:14:00,
2013-06-04 12:18:00,82.4,71.2,29.87,ESE,116,6.0,7.0,69,0.00,,---,0.00,944.00,VWS V14.00,2013-06-04 17:18:00,
2013-06-04 12:22:00,82.5,70.9,29.87,SE,137,6.0,11.0,68,0.00,,---,0.00,951.00,VWS V14.00,2013-06-04 17:22:00,
2013-06-04 12:26:00,82.2,71.0,29.87,ESE,109,8.0,11.0,69,0.00,,---,0.00,949.00,VWS V14.00,2013-06-04 17:26:00,
2013-06-04 12:30:00,82.0,70.8,29.85,SSE,155,7.0,12.0,69,0.00,,---,0.00,949.00,VWS V14.00,2013-06-04 17:30:00,
2013-06-04 12:34:00,82.3,71.5,29.85,SSE,167,3.0,8.0,70,0.00,,---,0.00,954.00,VWS V14.00,2013-06-04 17:34:00,
2013-06-04 12:38:00,82.8,72.0,29.85,SE,136,7.0,8.0,70,0.00,,---,0.00,937.00,VWS V14.00,2013-06-04 17:38:00,
2013-06-04 12:42:00,83.2,72.0,29.85,South,169,5.0,10.0,69,0.00,,---,0.00,944.00,VWS V14.00,2013-06-04 17:42:00,
2013-06-04 12:46:00,83.1,70.6,29.84,SE,128,9.0,11.0,66,0.00,,---,0.00,953.00,VWS V14.00,2013-06-04 17:46:00,
2013-06-04 12:50:00,83.2,71.1,29.84,SSE,156,8.0,11.0,67,0.00,,---,0.00,956.00,VWS V14.00,2013-06-04 17:50:00,
2013-06-04 12:54:00,83.5,71.8,29.84,SSE,152,12.0,12.0,68,0.00,,---,0.00,946.00,VWS V14.00,2013-06-04 17:54:00,
2013-06-04 12:58:00,83.5,70.9,29.84,SSE,149,10.0,14.0,66,0.00,,---,0.00,963.00,VWS V14.00,2013-06-04 17:58:00,
2013-06-04 13:00:00,83.5,70.9,29.81,SSE,153,7.0,14.0,66,0.00,,---,0.00,962.00,VWS V14.00,2013-06-04 18:00:00,
2013-06-04 13:02:00,83.7,72.0,29.81,SE,137,8.0,13.0,68,0.00,,---,0.00,970.00,VWS V14.00,2013-06-04 18:02:00,
2013-06-04 13:06:00,84.1,71.5,29.81,SSE,159,9.0,15.0,66,0.00,,---,0.00,956.00,VWS V14.00,2013-06-04 18:06:00,
2013-06-04 13:10:00,84.1,71.5,29.81,SE,144,9.0,15.0,66,0.00,,---,0.00,958.00,VWS V14.00,2013-06-04 18:10:00,
2013-06-04 13:14:00,84.5,71.9,29.80,SE,130,12.0,15.0,66,0.00,,---,0.00,953.00,VWS V14.00,2013-06-04 18:14:00,
2013-06-04 13:18:00,84.8,71.3,29.80,South,175,9.0,15.0,64,0.00,,---,0.00,965.00,VWS V14.00,2013-06-04 18:18:00,
2013-06-04 13:22:00,84.7,70.7,29.80,SE,140,6.0,15.0,63,0.00,,---,0.00,986.00,VWS V14.00,2013-06-04 18:22:00,
2013-06-04 13:26:00,84.6,70.2,29.80,SSE,161,7.0,15.0,62,0.00,,---,0.00,1065.00,VWS V14.00,2013-06-04 18:26:00,
2013-06-04 13:30:00,84.4,70.9,29.80,SSW,195,4.0,15.0,64,0.00,,---,0.00,700.00,VWS V14.00,2013-06-04 18:30:00,
2013-06-04 13:34:00,84.9,70.9,29.80,SE,132,6.0,12.0,63,0.00,,---,0.00,972.00,VWS V14.00,2013-06-04 18:34:00,
2013-06-04 13:38:00,85.2,70.7,29.80,SSE,149,8.0,15.0,62,0.00,,---,0.00,963.00,VWS V14.00,2013-06-04 18:38:00,
2013-06-04 13:42:00,85.3,71.3,29.80,South,182,4.0,15.0,63,0.00,,---,0.00,1060.00,VWS V14.00,2013-06-04 18:42:00,
2013-06-04 13:46:00,85.4,71.8,29.80,SSE,165,10.0,15.0,64,0.00,,---,0.00,1055.00,VWS V14.00,2013-06-04 18:46:00,
2013-06-04 13:50:00,85.2,71.2,29.80,SSE,167,10.0,15.0,63,0.00,,---,0.00,1055.00,VWS V14.00,2013-06-04 18:50:00,
2013-06-04 13:54:00,84.7,70.2,29.80,SSE,158,6.0,15.0,62,0.00,,---,0.00,378.00,VWS V14.00,2013-06-04 18:54:00,
2013-06-04 13:58:00,84.7,70.7,29.80,South,187,9.0,15.0,63,0.00,,---,0.00,1055.00,VWS V14.00,2013-06-04 18:58:00,
2013-06-04 14:00:00,85.1,71.6,29.80,SSE,155,5.0,15.0,64,0.00,,---,0.00,1055.00,VWS V14.00,2013-06-04 19:00:00,
2013-06-04 14:03:00,85.5,71.5,29.80,SSE,168,4.0,5.0,63,0.00,,---,0.00,944.00,VWS V14.00,2013-06-04 19:03:00,
2013-06-04 14:07:00,86.0,71.9,29.80,SSE,147,4.0,9.0,63,0.00,,---,0.00,933.00,VWS V14.00,2013-06-04 19:07:00,
2013-06-04 14:11:00,86.4,72.8,29.80,SE,144,3.0,9.0,64,0.00,,---,0.00,900.00,VWS V14.00,2013-06-04 19:11:00,
2013-06-04 14:15:00,86.4,70.9,29.80,SE,131,4.0,9.0,60,0.00,,---,0.00,902.00,VWS V14.00,2013-06-04 19:15:00,
2013-06-04 14:19:00,86.7,72.1,29.80,SSE,163,11.0,11.0,62,0.00,,---,0.00,898.00,VWS V14.00,2013-06-04 19:19:00,
2013-06-04 14:23:00,86.6,71.6,29.80,SSE,164,5.0,12.0,61,0.00,,---,0.00,916.00,VWS V14.00,2013-06-04 19:23:00,
2013-06-04 14:27:00,86.5,71.0,29.80,South,176,5.0,12.0,60,0.00,,---,0.00,949.00,VWS V14.00,2013-06-04 19:27:00,
2013-06-04 14:30:00,86.4,70.4,29.80,South,175,8.0,12.0,59,0.00,,---,0.00,949.00,VWS V14.00,2013-06-04 19:30:00,
2013-06-04 14:31:00,86.4,70.4,29.80,SSE,154,5.0,11.0,59,0.00,,---,0.00,949.00,VWS V14.00,2013-06-04 19:31:00,
2013-06-04 14:35:00,86.1,70.1,29.80,SE,136,10.0,12.0,59,0.00,,---,0.00,422.00,VWS V14.00,2013-06-04 19:35:00,
2013-06-04 14:39:00,86.3,70.8,29.80,SE,140,6.0,12.0,60,0.00,,---,0.00,422.00,VWS V14.00,2013-06-04 19:39:00,
2013-06-04 14:43:00,86.7,70.7,29.80,South,171,9.0,12.0,59,0.00,,---,0.00,846.00,VWS V14.00,2013-06-04 19:43:00,
2013-06-04 14:47:00,86.6,71.1,29.80,SSE,149,6.0,12.0,60,0.00,,---,0.00,837.00,VWS V14.00,2013-06-04 19:47:00,
2013-06-04 14:51:00,86.8,70.8,29.80,SSE,153,2.0,12.0,59,0.00,,---,0.00,828.00,VWS V14.00,2013-06-04 19:51:00,
2013-06-04 14:55:00,87.2,70.1,29.80,SSE,159,6.0,12.0,57,0.00,,---,0.00,821.00,VWS V14.00,2013-06-04 19:55:00,
2013-06-04 14:59:00,87.1,70.5,29.80,SSE,156,6.0,12.0,58,0.00,,---,0.00,809.00,VWS V14.00,2013-06-04 19:59:00,
2013-06-04 15:00:00,87.0,70.4,29.79,SSE,161,7.0,12.0,58,0.00,,---,0.00,807.00,VWS V14.00,2013-06-04 20:00:00,
2013-06-04 15:03:00,87.0,71.9,29.79,SE,141,11.0,11.0,61,0.00,,---,0.00,802.00,VWS V14.00,2013-06-04 20:03:00,
2013-06-04 15:07:00,87.2,70.1,29.79,SE,144,9.0,11.0,57,0.00,,---,0.00,789.00,VWS V14.00,2013-06-04 20:07:00,
2013-06-04 15:11:00,87.3,71.2,29.79,SE,136,4.0,11.0,59,0.00,,---,0.00,788.00,VWS V14.00,2013-06-04 20:11:00,
2013-06-04 15:15:00,87.6,71.0,29.79,SE,145,4.0,11.0,58,0.00,,---,0.00,779.00,VWS V14.00,2013-06-04 20:15:00,
2013-06-04 15:19:00,87.8,71.7,29.79,SE,141,5.0,11.0,59,0.00,,---,0.00,770.00,VWS V14.00,2013-06-04 20:19:00,
2013-06-04 15:23:00,87.7,71.1,29.79,SE,127,4.0,11.0,58,0.00,,---,0.00,761.00,VWS V14.00,2013-06-04 20:23:00,
2013-06-04 15:27:00,87.8,70.7,29.79,SSE,157,8.0,11.0,57,0.00,,---,0.00,749.00,VWS V14.00,2013-06-04 20:27:00,
2013-06-04 15:30:00,87.7,70.6,29.78,SSE,167,4.0,11.0,57,0.00,,---,0.00,754.00,VWS V14.00,2013-06-04 20:30:00,
2013-06-04 15:31:00,87.7,72.1,29.78,SSE,163,3.0,4.0,60,0.00,,---,0.00,758.00,VWS V14.00,2013-06-04 20:31:00,
2013-06-04 15:35:00,87.7,71.1,29.78,SE,144,6.0,6.0,58,0.00,,---,0.00,758.00,VWS V14.00,2013-06-04 20:35:00,
2013-06-04 15:39:00,87.1,72.0,29.78,SSE,148,5.0,6.0,61,0.00,,---,0.00,227.00,VWS V14.00,2013-06-04 20:39:00,
2013-06-04 15:43:00,87.4,72.3,29.78,SE,141,2.0,6.0,61,0.00,,---,0.00,721.00,VWS V14.00,2013-06-04 20:43:00,
2013-06-04 15:47:00,88.0,71.9,29.79,SE,141,4.0,6.0,59,0.00,,---,0.00,703.00,VWS V14.00,2013-06-04 20:47:00,
2013-06-04 15:51:00,88.1,71.0,29.79,SE,138,7.0,10.0,57,0.00,,---,0.00,698.00,VWS V14.00,2013-06-04 20:51:00,
2013-06-04 15:55:00,87.6,69.4,29.79,SSE,149,5.0,10.0,55,0.00,,---,0.00,153.00,VWS V14.00,2013-06-04 20:55:00,
2013-06-04 15:59:00,87.7,70.6,29.78,SSE,163,4.0,10.0,57,0.00,,---,0.00,666.00,VWS V14.00,2013-06-04 20:59:00,
2013-06-04 16:00:00,87.8,69.6,29.78,SSE,154,4.0,10.0,55,0.00,,---,0.00,666.00,VWS V14.00,2013-06-04 21:00:00,
2013-06-04 16:04:00,88.0,71.4,29.78,SE,134,5.0,6.0,58,0.00,,---,0.00,659.00,VWS V14.00,2013-06-04 21:04:00,
2013-06-04 16:08:00,88.1,72.5,29.78,South,182,5.0,6.0,60,0.00,,---,0.00,645.00,VWS V14.00,2013-06-04 21:08:00,
2013-06-04 16:12:00,88.1,71.5,29.78,SSE,151,5.0,7.0,58,0.00,,---,0.00,631.00,VWS V14.00,2013-06-04 21:12:00,
2013-06-04 16:16:00,88.1,71.5,29.78,SSE,150,1.0,7.0,58,0.00,,---,0.00,615.00,VWS V14.00,2013-06-04 21:16:00,
2013-06-04 16:20:00,88.3,71.2,29.78,SE,128,3.0,7.0,57,0.00,,---,0.00,606.00,VWS V14.00,2013-06-04 21:20:00,
2013-06-04 16:24:00,88.3,70.6,29.78,South,176,6.0,7.0,56,0.00,,---,0.00,603.00,VWS V14.00,2013-06-04 21:24:00,
2013-06-04 16:28:00,88.2,71.1,29.78,ESE,123,7.0,7.0,57,0.00,,---,0.00,589.00,VWS V14.00,2013-06-04 21:28:00,
2013-06-04 16:30:00,88.2,70.5,29.77,SSE,149,5.0,8.0,56,0.00,,---,0.00,584.00,VWS V14.00,2013-06-04 21:30:00,
2013-06-04 16:32:00,88.1,70.4,29.77,ESE,113,5.0,5.0,56,0.00,,---,0.00,578.00,VWS V14.00,2013-06-04 21:32:00,
2013-06-04 16:36:00,88.2,71.1,29.77,SSE,163,6.0,6.0,57,0.00,,---,0.00,570.00,VWS V14.00,2013-06-04 21:36:00,
2013-06-04 16:40:00,88.2,71.1,29.77,SSE,167,5.0,6.0,57,0.00,,---,0.00,555.00,VWS V14.00,2013-06-04 21:40:00,
2013-06-04 16:44:00,88.1,71.0,29.77,SSE,162,3.0,7.0,57,0.00,,---,0.00,543.00,VWS V14.00,2013-06-04 21:44:00,
2013-06-04 16:48:00,88.1,72.5,29.77,South,179,2.0,7.0,60,0.00,,---,0.00,538.00,VWS V14.00,2013-06-04 21:48:00,
2013-06-04 16:52:00,88.1,70.4,29.77,SSE,162,1.0,7.0,56,0.00,,---,0.00,520.00,VWS V14.00,2013-06-04 21:52:00,
2013-06-04 16:56:00,88.1,71.5,29.77,SSE,153,3.0,7.0,58,0.00,,---,0.00,512.00,VWS V14.00,2013-06-04 21:56:00,
2013-06-04 17:00:00,88.1,73.4,29.77,SE,146,2.0,7.0,62,0.00,,---,0.00,506.00,VWS V14.00,2013-06-04 22:00:00,
2013-06-04 17:04:00,88.3,71.2,29.77,SSE,156,3.0,5.0,57,0.00,,---,0.00,526.00,VWS V14.00,2013-06-04 22:04:00,
2013-06-04 17:08:00,88.2,72.6,29.77,SE,136,7.0,7.0,60,0.00,,---,0.00,510.00,VWS V14.00,2013-06-04 22:08:00,
2013-06-04 17:12:00,87.8,71.2,29.77,SE,139,2.0,7.0,58,0.00,,---,0.00,503.00,VWS V14.00,2013-06-04 22:12:00,
2013-06-04 17:16:00,88.2,72.6,29.77,SE,130,3.0,7.0,60,0.00,,---,0.00,503.00,VWS V14.00,2013-06-04 22:16:00,
2013-06-04 17:20:00,88.2,71.1,29.77,SSE,150,4.0,7.0,57,0.00,,---,0.00,374.00,VWS V14.00,2013-06-04 22:20:00,
2013-06-04 17:24:00,88.0,72.4,29.77,SE,135,4.0,7.0,60,0.00,,---,0.00,443.00,VWS V14.00,2013-06-04 22:24:00,
2013-06-04 17:28:00,88.1,72.0,29.77,South,171,1.0,7.0,59,0.00,,---,0.00,431.00,VWS V14.00,2013-06-04 22:28:00,
2013-06-04 17:30:00,88.2,72.1,29.78,South,171,2.0,7.0,59,0.00,,---,0.00,424.00,VWS V14.00,2013-06-04 22:30:00,
2013-06-04 17:32:00,88.2,71.6,29.78,SE,145,2.0,2.0,58,0.00,,---,0.00,413.00,VWS V14.00,2013-06-04 22:32:00,
2013-06-04 17:36:00,88.2,72.6,29.78,South,171,3.0,5.0,60,0.00,,---,0.00,320.00,VWS V14.00,2013-06-04 22:36:00,
2013-06-04 17:40:00,88.1,72.0,29.78,SE,142,3.0,6.0,59,0.00,,---,0.00,401.00,VWS V14.00,2013-06-04 22:40:00,
2013-06-04 17:44:00,88.0,72.4,29.77,SE,127,3.0,6.0,60,0.00,,---,0.00,367.00,VWS V14.00,2013-06-04 22:44:00,
2013-06-04 17:48:00,87.7,71.1,29.77,ESE,119,3.0,6.0,58,0.00,,---,0.00,352.00,VWS V14.00,2013-06-04 22:48:00,
2013-06-04 17:52:00,87.5,72.4,29.77,ESE,123,0.0,6.0,61,0.00,,---,0.00,345.00,VWS V14.00,2013-06-04 22:52:00,
2013-06-04 17:56:00,87.3,73.2,29.77,East,100,2.0,6.0,63,0.00,,---,0.00,325.00,VWS V14.00,2013-06-04 22:56:00,
2013-06-04 18:00:00,87.1,72.5,29.77,ESE,123,4.0,6.0,62,0.00,,---,0.00,316.00,VWS V14.00,2013-06-04 23:00:00,
2013-06-04 18:04:00,87.1,71.5,29.77,ESE,113,3.0,4.0,60,0.00,,---,0.00,311.00,VWS V14.00,2013-06-04 23:04:00,
2013-06-04 18:08:00,87.1,71.5,29.77,ESE,105,2.0,4.0,60,0.00,,---,0.00,309.00,VWS V14.00,2013-06-04 23:08:00,
2013-06-04 18:13:00,87.0,72.4,29.77,ESE,106,2.0,4.0,62,0.00,,---,0.00,116.00,VWS V14.00,2013-06-04 23:13:00,
2013-06-04 18:17:00,86.7,72.1,29.78,ESE,113,3.0,4.0,62,0.00,,---,0.00,98.00,VWS V14.00,2013-06-04 23:17:00,
2013-06-04 18:21:00,86.5,71.9,29.78,ESE,110,2.0,4.0,62,0.00,,---,0.00,232.00,VWS V14.00,2013-06-04 23:21:00,
2013-06-04 18:25:00,86.3,72.2,29.78,ESE,119,1.0,4.0,63,0.00,,---,0.00,225.00,VWS V14.00,2013-06-04 23:25:00,
2013-06-04 18:29:00,86.3,72.2,29.78,ESE,117,3.0,4.0,63,0.00,,---,0.00,209.00,VWS V14.00,2013-06-04 23:29:00,
2013-06-04 18:30:00,86.3,71.8,29.77,ESE,105,1.0,4.0,62,0.00,,---,0.00,207.00,VWS V14.00,2013-06-04 23:30:00,
2013-06-04 18:33:00,86.3,71.8,29.77,ESE,107,0.0,2.0,62,0.00,,---,0.00,200.00,VWS V14.00,2013-06-04 23:33:00,
2013-06-04 18:37:00,86.3,71.8,29.77,ESE,108,2.0,2.0,62,0.00,,---,0.00,172.00,VWS V14.00,2013-06-04 23:37:00,
2013-06-04 18:41:00,86.1,72.0,29.77,ESE,112,2.0,3.0,63,0.00,,---,0.00,169.00,VWS V14.00,2013-06-04 23:41:00,
2013-06-04 18:45:00,85.9,72.3,29.78,SE,132,2.0,3.0,64,0.00,,---,0.00,158.00,VWS V14.00,2013-06-04 23:45:00,
2013-06-04 18:49:00,85.9,71.8,29.78,SE,133,1.0,3.0,63,0.00,,---,0.00,146.00,VWS V14.00,2013-06-04 23:49:00,
2013-06-04 18:53:00,85.9,72.3,29.78,SE,132,1.0,3.0,64,0.00,,---,0.00,146.00,VWS V14.00,2013-06-04 23:53:00,
2013-06-04 18:57:00,85.7,72.6,29.78,SE,132,2.0,3.0,65,0.00,,---,0.00,125.00,VWS V14.00,2013-06-04 23:57:00,
2013-06-04 19:00:00,85.6,72.0,29.78,SE,132,0.0,3.0,64,0.00,,---,0.00,113.00,VWS V14.00,2013-06-05 00:00:00,
2013-06-04 19:01:00,85.6,72.0,29.78,SE,132,0.0,0.0,64,0.00,,---,0.00,113.00,VWS V14.00,2013-06-05 00:01:00,
2013-06-04 19:05:00,85.3,72.2,29.78,ESE,117,1.0,1.0,65,0.00,,---,0.00,97.00,VWS V14.00,2013-06-05 00:05:00,
2013-06-04 19:09:00,85.1,72.5,29.78,ESE,115,1.0,3.0,66,0.00,,---,0.00,42.00,VWS V14.00,2013-06-05 00:09:00,
2013-06-04 19:13:00,85.0,71.9,29.78,ESE,118,2.0,3.0,65,0.00,,---,0.00,40.00,VWS V14.00,2013-06-05 00:13:00,
2013-06-04 19:17:00,84.8,71.7,29.79,ESE,116,2.0,3.0,65,0.00,,---,0.00,37.00,VWS V14.00,2013-06-05 00:17:00,
2013-06-04 19:21:00,84.7,72.1,29.79,ESE,118,0.0,3.0,66,0.00,,---,0.00,33.00,VWS V14.00,2013-06-05 00:21:00,
2013-06-04 19:25:00,84.5,72.3,29.79,ESE,119,1.0,3.0,67,0.00,,---,0.00,30.00,VWS V14.00,2013-06-05 00:25:00,
2013-06-04 19:29:00,84.3,72.2,29.79,ESE,119,1.0,3.0,67,0.00,,---,0.00,26.00,VWS V14.00,2013-06-05 00:29:00,
2013-06-04 19:30:00,84.3,72.2,29.79,ESE,119,1.0,3.0,67,0.00,,---,0.00,26.00,VWS V14.00,2013-06-05 00:30:00,
2013-06-04 19:33:00,84.1,72.4,29.79,ESE,119,1.0,1.0,68,0.00,,---,0.00,23.00,VWS V14.00,2013-06-05 00:33:00,
2013-06-04 19:37:00,83.9,72.2,29.79,ESE,119,0.0,1.0,68,0.00,,---,0.00,19.00,VWS V14.00,2013-06-05 00:37:00,
2013-06-04 19:41:00,83.7,72.5,29.79,ESE,119,0.0,1.0,69,0.00,,---,0.00,18.00,VWS V14.00,2013-06-05 00:41:00,
2013-06-04 19:45:00,83.6,72.4,29.79,ESE,119,0.0,1.0,69,0.00,,---,0.00,12.00,VWS V14.00,2013-06-05 00:45:00,
2013-06-04 19:49:00,83.4,72.2,29.79,ESE,119,0.0,1.0,69,0.00,,---,0.00,9.00,VWS V14.00,2013-06-05 00:49:00,
2013-06-04 19:53:00,83.3,72.5,29.79,ESE,119,0.0,1.0,70,0.00,,---,0.00,5.00,VWS V14.00,2013-06-05 00:53:00,
2013-06-04 19:57:00,83.1,72.3,29.79,ESE,119,0.0,1.0,70,0.00,,---,0.00,0.00,VWS V14.00,2013-06-05 00:57:00,
2013-06-04 20:00:00,83.0,72.2,29.79,ESE,119,0.0,1.0,70,0.00,,---,0.00,0.00,VWS V14.00,2013-06-05 01:00:00,
2013-06-04 20:02:00,83.0,72.6,29.79,ESE,119,0.0,0.0,71,0.00,,---,0.00,0.00,VWS V14.00,2013-06-05 01:02:00,
2013-06-04 20:06:00,82.8,72.0,29.79,ESE,119,0.0,0.0,70,0.00,,---,0.00,0.00,VWS V14.00,2013-06-05 01:06:00,
2013-06-04 20:10:00,82.7,71.9,29.79,ESE,119,0.0,0.0,70,0.00,,---,0.00,0.00,VWS V14.00,2013-06-05 01:10:00,
2013-06-04 20:14:00,82.4,72.1,29.79,ENE,65,0.0,0.0,71,0.00,,---,0.00,0.00,VWS V14.00,2013-06-05 01:14:00,
2013-06-04 20:18:00,82.1,72.2,29.79,East,84,0.0,0.0,72,0.00,,---,0.00,0.00,VWS V14.00,2013-06-05 01:18:00,
2013-06-04 20:22:00,81.9,72.0,29.79,East,84,0.0,0.0,72,0.00,,---,0.00,0.00,VWS V14.00,2013-06-05 01:22:00,
2013-06-04 20:26:00,81.8,72.3,29.79,East,84,0.0,0.0,73,0.00,,---,0.00,0.00,VWS V14.00,2013-06-05 01:26:00,
2013-06-04 20:30:00,81.6,72.1,29.79,East,84,0.0,0.0,73,0.00,,---,0.00,0.00,VWS V14.00,2013-06-05 01:30:00,
2013-06-04 20:34:00,81.5,72.0,29.79,East,84,0.0,0.0,73,0.00,,---,0.00,0.00,VWS V14.00,2013-06-05 01:34:00,
2013-06-04 20:38:00,81.4,71.9,29.79,East,84,0.0,0.0,73,0.00,,---,0.00,0.00,VWS V14.00,2013-06-05 01:38:00,
2013-06-04 20:42:00,81.2,71.7,29.79,East,84,0.0,0.0,73,0.00,,---,0.00,0.00,VWS V14.00,2013-06-05 01:42:00,
2013-06-04 20:46:00,81.2,71.7,29.80,East,84,0.0,0.0,73,0.00,,---,0.00,0.00,VWS V14.00,2013-06-05 01:46:00,
2013-06-04 20:50:00,81.1,72.0,29.80,East,84,0.0,0.0,74,0.00,,---,0.00,0.00,VWS V14.00,2013-06-05 01:50:00,
2013-06-04 20:54:00,80.9,71.8,29.80,East,84,0.0,0.0,74,0.00,,---,0.00,0.00,VWS V14.00,2013-06-05 01:54:00,
2013-06-04 20:58:00,80.8,72.1,29.80,East,84,0.0,0.0,75,0.00,,---,0.00,0.00,VWS V14.00,2013-06-05 01:58:00,
2013-06-04 21:00:00,80.6,71.9,29.81,East,84,0.0,0.0,75,0.00,,---,0.00,0.00,VWS V14.00,2013-06-05 02:00:00,
2013-06-04 21:02:00,80.5,72.6,29.81,East,84,0.0,0.0,77,0.00,,---,0.00,0.00,VWS V14.00,2013-06-05 02:02:00,
2013-06-04 21:06:00,80.4,71.8,29.81,East,84,0.0,0.0,75,0.00,,---,0.00,0.00,VWS V14.00,2013-06-05 02:06:00,
2013-06-04 21:10:00,80.3,71.7,29.81,East,84,0.0,0.0,75,0.00,,---,0.00,0.00,VWS V14.00,2013-06-05 02:10:00,
2013-06-04 21:14:00,80.3,71.7,29.81,East,84,0.0,0.0,75,0.00,,---,0.00,0.00,VWS V14.00,2013-06-05 02:14:00,
2013-06-04 21:18:00,80.3,71.3,29.81,East,84,0.0,0.0,74,0.00,,---,0.00,0.00,VWS V14.00,2013-06-05 02:18:00,
2013-06-04 21:22:00,80.3,71.7,29.81,East,84,0.0,0.0,75,0.00,,---,0.00,0.00,VWS V14.00,2013-06-05 02:22:00,
2013-06-04 21:26:00,80.2,71.2,29.81,East,84,0.0,0.0,74,0.00,,---,0.00,0.00,VWS V14.00,2013-06-05 02:26:00,
2013-06-04 21:30:00,80.3,71.3,29.81,East,84,0.0,0.0,74,0.00,,---,0.00,0.00,VWS V14.00,2013-06-05 02:30:00,
2013-06-04 21:34:00,80.2,71.6,29.81,East,100,1.0,2.0,75,0.00,,---,0.00,0.00,VWS V14.00,2013-06-05 02:34:00,
2013-06-04 21:38:00,80.0,71.4,29.81,East,100,2.0,2.0,75,0.00,,---,0.00,0.00,VWS V14.00,2013-06-05 02:38:00,
2013-06-04 21:42:00,80.1,71.1,29.81,East,100,2.0,3.0,74,0.00,,---,0.00,0.00,VWS V14.00,2013-06-05 02:42:00,
2013-06-04 21:47:00,80.0,71.0,29.82,East,100,2.0,3.0,74,0.00,,---,0.00,0.00,VWS V14.00,2013-06-05 02:47:00,
2013-06-04 21:51:00,79.9,70.9,29.82,ESE,111,2.0,4.0,74,0.00,,---,0.00,0.00,VWS V14.00,2013-06-05 02:51:00,
2013-06-04 21:55:00,79.8,71.2,29.82,ESE,114,3.0,4.0,75,0.00,,---,0.00,0.00,VWS V14.00,2013-06-05 02:55:00,
2013-06-04 21:59:00,79.7,71.1,29.82,SE,143,1.0,4.0,75,0.00,,---,0.00,0.00,VWS V14.00,2013-06-05 02:59:00,
2013-06-04 22:00:00,79.6,71.0,29.83,SE,140,3.0,4.0,75,0.00,,---,0.00,0.00,VWS V14.00,2013-06-05 03:00:00,
2013-06-04 22:03:00,79.6,71.0,29.83,SE,144,3.0,3.0,75,0.00,,---,0.00,0.00,VWS V14.00,2013-06-05 03:03:00,
2013-06-04 22:11:00,79.6,70.6,29.83,SSE,148,1.0,3.0,74,0.00,,---,0.00,0.00,VWS V14.00,2013-06-05 03:11:00,
2013-06-04 22:15:00,79.5,70.9,29.83,SSE,148,1.0,3.0,75,0.00,,---,0.00,0.00,VWS V14.00,2013-06-05 03:15:00,
2013-06-04 22:19:00,79.3,71.1,29.83,SSE,148,1.0,3.0,76,0.00,,---,0.00,0.00,VWS V14.00,2013-06-05 03:19:00,
2013-06-04 22:23:00,79.1,70.9,29.83,SSE,148,0.0,3.0,76,0.00,,---,0.00,0.00,VWS V14.00,2013-06-05 03:23:00,
2013-06-04 22:27:00,78.9,70.7,29.83,SSE,148,3.0,3.0,76,0.00,,---,0.00,0.00,VWS V14.00,2013-06-05 03:27:00,
2013-06-04 22:30:00,78.8,70.6,29.83,SSE,148,2.0,3.0,76,0.00,,---,0.00,0.00,VWS V14.00,2013-06-05 03:30:00,
2013-06-04 22:31:00,78.8,71.0,29.83,SSE,148,1.0,2.0,77,0.00,,---,0.00,0.00,VWS V14.00,2013-06-05 03:31:00,
2013-06-04 22:35:00,78.7,70.9,29.83,SSE,148,2.0,2.0,77,0.00,,---,0.00,0.00,VWS V14.00,2013-06-05 03:35:00,
2013-06-04 22:39:00,78.5,70.7,29.83,SSE,152,3.0,4.0,77,0.00,,---,0.00,0.00,VWS V14.00,2013-06-05 03:39:00,
2013-06-04 22:43:00,78.6,70.8,29.83,SSE,151,3.0,4.0,77,0.00,,---,0.00,0.00,VWS V14.00,2013-06-05 03:43:00,
2013-06-04 22:47:00,78.5,70.3,29.83,SE,141,5.0,6.0,76,0.00,,---,0.00,0.00,VWS V14.00,2013-06-05 03:47:00,
2013-06-04 22:51:00,78.5,70.7,29.83,SSE,148,2.0,6.0,77,0.00,,---,0.00,0.00,VWS V14.00,2013-06-05 03:51:00,
2013-06-04 22:55:00,78.4,71.0,29.83,SE,145,4.0,6.0,78,0.00,,---,0.00,0.00,VWS V14.00,2013-06-05 03:55:00,
2013-06-04 22:59:00,78.3,70.5,29.83,SE,142,3.0,6.0,77,0.00,,---,0.00,0.00,VWS V14.00,2013-06-05 03:59:00,
2013-06-04 23:00:00,78.3,70.5,29.83,SE,130,1.0,6.0,77,0.00,,---,0.00,0.00,VWS V14.00,2013-06-05 04:00:00,
2013-06-04 23:03:00,78.2,70.4,29.83,SE,130,2.0,2.0,77,0.00,,---,0.00,0.00,VWS V14.00,2013-06-05 04:03:00,
2013-06-04 23:07:00,78.1,70.3,29.83,SE,132,3.0,3.0,77,0.00,,---,0.00,0.00,VWS V14.00,2013-06-05 04:07:00,
2013-06-04 23:11:00,78.1,70.3,29.83,SE,132,1.0,3.0,77,0.00,,---,0.00,0.00,VWS V14.00,2013-06-05 04:11:00,
2013-06-04 23:15:00,78.0,70.6,29.83,SE,133,2.0,3.0,78,0.00,,---,0.00,0.00,VWS V14.00,2013-06-05 04:15:00,
2013-06-04 23:19:00,77.9,70.5,29.83,SE,133,1.0,3.0,78,0.00,,---,0.00,0.00,VWS V14.00,2013-06-05 04:19:00,
2013-06-04 23:23:00,77.9,70.5,29.83,SE,132,2.0,3.0,78,0.00,,---,0.00,0.00,VWS V14.00,2013-06-05 04:23:00,
2013-06-04 23:27:00,77.8,70.8,29.83,SE,136,2.0,3.0,79,0.00,,---,0.00,0.00,VWS V14.00,2013-06-05 04:27:00,
2013-06-04 23:30:00,77.7,70.7,29.83,SE,138,3.0,4.0,79,0.00,,---,0.00,0.00,VWS V14.00,2013-06-05 04:30:00,
2013-06-04 23:31:00,77.7,70.7,29.83,SE,142,3.0,4.0,79,0.00,,---,0.00,0.00,VWS V14.00,2013-06-05 04:31:00,
2013-06-04 23:35:00,77.7,70.7,29.83,SE,142,3.0,4.0,79,0.00,,---,0.00,0.00,VWS V14.00,2013-06-05 04:35:00,
2013-06-04 23:40:00,77.6,70.6,29.83,SE,142,4.0,4.0,79,0.00,,---,0.00,0.00,VWS V14.00,2013-06-05 04:40:00,
2013-06-04 23:44:00,77.5,70.5,29.83,SE,144,3.0,6.0,79,0.00,,---,0.00,0.00,VWS V14.00,2013-06-05 04:44:00,
2013-06-04 23:48:00,77.4,70.4,29.82,SSE,148,4.0,6.0,79,0.00,,---,0.00,0.00,VWS V14.00,2013-06-05 04:48:00,
2013-06-04 23:56:00,77.2,70.2,29.82,SE,137,2.0,6.0,79,0.00,,---,0.00,0.00,VWS V14.00,2013-06-05 04:56:00,